Home   Weather   Vilnius   Past weeks
Flag for Lithuania

Past Weather in Vilnius, Lithuania — Yesterday and Last 2 Weeks

Now
79 °F

Passing clouds.


Feels Like: 79 °F
Forecast: 79 / 56 °F
Wind: 6 mph from Northwest

Location: Vilnius Airport

Current Time: Jul 20, 2019 at 7:42:12 pm

Latest Report: Jul 20, 2019 at 6:50 pm


Visibility: N/A

Pressure: 30.01 "Hg

Humidity: 39%

Dew Point: 52 °F

Location of VilniusLocation

Past Weather in Vilnius — Graph

°F

Vilnius Temperature Yesterday

Maximum temperature yesterday: 73 °F (at 3:57 pm)
Minimum temperature yesterday: 55 °F (at 4:20 am)
Average temperature yesterday: 65 °F

High & Low Weather Summary for the Past Weeks

 TemperatureHumidityPressure
High79 °F (Jul 20, 3:50 pm)100% (Jul 7, 3:20 am)30.01 "Hg (Jul 7, 3:20 am)
Low46 °F (Jul 16, 5:02 am)33% (Jul 15, 3:50 pm)29.53 "Hg (Jul 7, 7:00 am)
Average59 °F72%29.75 "Hg
* Reported Jul 5 6:20 pm — Jul 20 6:20 pm, Vilnius. Weather by CustomWeather, © 2019

Note: Actual official high and low records may vary slightly from our data, if they occured in-between our weather recording intervals... More about our weather records

Advertising

Vilnius Weather History for the Previous 24 Hours

Scroll right to see more
 ConditionsComfort  
Time TempWeatherWind HumidityBarometerVisibility
6:20 pm
Sat, Jul 20
79 °FSunny.3 mph39%30.01 "Hg10 mi
5:50 pm79 °FPassing clouds.5 mph39%30.01 "HgN/A
5:38 pm79 °FPassing clouds.8 mph39%30.01 "HgN/A
5:20 pm79 °FPassing clouds.7 mph37%30.01 "HgN/A
4:50 pm77 °FPassing clouds.8 mph42%30.01 "HgN/A
4:20 pm79 °FPassing clouds.8 mph39%30.01 "HgN/A
3:50 pm79 °FPassing clouds.6 mph39%30.01 "HgN/A
2:50 pm77 °FSunny.3 mph42%30.01 "Hg10 mi
2:20 pm77 °FPassing clouds.3 mph42%30.01 "HgN/A
1:50 pm77 °FPassing clouds.8 mph44%30.01 "HgN/A
1:20 pm77 °FPassing clouds.8 mph42%30.01 "HgN/A
12:50 pm75 °FPassing clouds.6 mph44%30.01 "HgN/A
12:20 pm75 °FSunny.5 mph44%30.01 "Hg10 mi
11:50 am73 °FSunny.5 mph47%30.01 "Hg10 mi
11:20 am73 °FPassing clouds.6 mph47%30.01 "HgN/A
10:50 am72 °FPassing clouds.5 mph50%30.01 "HgN/A
10:20 am72 °FPassing clouds.5 mph50%30.01 "HgN/A
9:50 am70 °FSunny.2 mph57%30.01 "Hg10 mi
9:20 am68 °FSunny.2 mph60%30.01 "Hg10 mi
8:50 am64 °FSunny.2 mph68%30.01 "Hg10 mi
8:20 am64 °FSunny.1 mph73%30.01 "Hg10 mi
7:50 am59 °FSunny.1 mph82%30.01 "Hg10 mi
7:20 am55 °FSunny.2 mph82%30.01 "Hg10 mi
6:50 am54 °FSunny.2 mph88%29.98 "Hg10 mi
6:20 am52 °FSunny.2 mph88%29.98 "Hg10 mi
5:50 am50 °FSunny.3 mph94%29.98 "Hg10 mi
5:20 am52 °FSunny.2 mph88%29.98 "Hg10 mi
4:50 am52 °FClear.3 mph88%29.98 "Hg10 mi
4:34 am50 °FClear.3 mph94%29.98 "Hg10 mi
3:50 am52 °FClear.3 mph88%29.98 "Hg10 mi
3:20 am54 °FClear.2 mph82%29.98 "Hg10 mi
2:50 am54 °FClear.No wind88%29.98 "Hg10 mi
2:20 am55 °FClear.1 mph82%29.98 "Hg10 mi
1:50 am55 °FClear.1 mph77%29.98 "Hg10 mi
1:20 am57 °FClear.1 mph77%29.95 "Hg10 mi
12:50 am57 °FClear.1 mph77%29.95 "Hg10 mi
12:20 am61 °FClear.1 mph63%29.95 "Hg10 mi
11:50 pm
Fri, Jul 19
61 °FClear.1 mph68%29.95 "Hg10 mi
11:20 pm61 °FClear.1 mph63%29.95 "Hg10 mi
10:50 pm63 °FClear.2 mph59%29.95 "Hg10 mi
10:20 pm66 °FClear.6 mph52%29.95 "Hg10 mi
9:50 pm68 °FClear.6 mph49%29.92 "Hg10 mi
9:20 pm70 °FSunny.6 mph46%29.92 "Hg10 mi
8:50 pm72 °FSunny.8 mph41%29.92 "Hg10 mi
8:20 pm72 °FPassing clouds.9 mph41%29.92 "HgN/A
7:50 pm73 °FSunny.13 mph38%29.92 "Hg10 mi
7:20 pm73 °FPassing clouds.10 mph38%29.92 "HgN/A
Weather by CustomWeather, © 2019

See weather overview